CZ-3C DEB, 39346

Orbit data source: Space-Track

CZ-3C DEB, 39346 is space debris in HEO originally from a launch on Sun, 31 Oct 2010 UTC launched from the Xichang Space Center, China (XSC). Debris objects in space refer to the collection of defunct objects orbiting the Earth. Examples of debris include non-operational satellites, rocket bodies, and fragments generated from explosions, collisions, or faulty payload assembly.

Loading next visibility...
Identifier
39346, 2010-057L
Orbit
HEO
Country
Flag of CNCN / PRC
Related business
Manufacturer
CALT
Mission
Spacecraft
Bus & Motor
Unknown
Mass
Unknown
Launch date (UTC)
2010-10-31 (16 years ago)
Launch vehicle
Unknown
Launch site
Xichang Space Center, China (XSC)
Object type
Payload
Rocket body
Debris
Shape & HBR
Unknown shape, 0.5 m
Radar Cross Section
Medium (>0.1 m² and <1 m²)

Expand to show TLE details & history
Last TLE update: 1 day ago

TLE from 1 day ago
0 CZ-3C DEB
1 39346U 10057L   26170.98363596  .00000023  00000-0  27825-2 0  9994
2 39346  20.1774 167.4636 7166043  25.0605 357.0394  2.17962109101006
Epoch: 2026-06-19T23:36Z
TLE epoch observation values (Epoch: 2026-06-19T23:36:26.146Z)
Latitude
0.0003°
Longitude
-94.93135°
Altitude
1,052.618 km
Speed
9.561 km/s
True Right ascension
11h 09m 31s
True Declination
0° 00' 01"
Sunlit
Object was in daylight at epoch
Visualization orbit readout
Latitude
Unknown
Longitude
Unknown
Altitude
Unknown
Speed
Unknown
Apparent Right ascension
Unknown
Apparent Declination
Unknown
Sunlit
N/A
Visualization observer readout
Local Sidereal Time
11:43:29
Azimuth
Unknown
Elevation
Unknown
Doppler factor
Unknown
Orbital elements
Apogee altitude
36,763.007 km
Perigee altitude
744.072 km
Semi-major axis
25,131.676 km
Eccentricity
0.7166
Inclination
20.1774°
RAAN
167.4636°
Arg. of periapsis
25.0605°
True anomaly
334.97114°
Mean anomaly
357.0394°
Eccentric anomaly
349.69345°
Mean motion
0.54477 °/min
Orbital period
660.83 mins
BSTAR
0.0027825
Loading maneuver chart data...
Computing Atmospheric mass density...
Loading historical data...
Loading historical data...
Loading historical data...
Loading historical data...
Loading historical data...
Loading historical data...
Loading historical data...

Documentation

Showing up to 5 results
|